CAPE
0 0 0 0 92 147 42 34 0 0 11 74 1 0 7 2 0 0 3 20 255 505 894 848 903 983 1076 1281 1185 1160 1201 845 789 886 839 824 878 876 866 743 852 752 670 168 245 397 384 156 29
0 0 0 0 56 101 22 2 1 0 0 52 46 45 83 52 23 25 0 87 182 554 685 649 948 1045 1067 1089 1106 1172 1106 874 779 831 593 425 512 502 797 864 747 475 357 113 167 163 7 0 0
0 0 0 0 0 33 33 0 0 0 6 34 2 20 58 33 38 0 2 36 171 542 615 669 783 1011 1186 1173 1167 1079 1124 1133 1063 1023 554 217 117 195 365 696 583 401 139 101 51 0 0 0 0
0 0 0 0 0 1 8 10 0 0 2 12 0 30 98 93 16 3 29 51 245 454 474 510 681 809 960 949 942 927 855 757 763 808 778 452 82 52 161 574 535 372 110 28 0 0 0 0 0
0 0 0 0 0 0 14 22 5 0 23 1 9 58 111 92 35 60 34 84 138 286 332 371 473 590 726 820 780 669 582 573 630 645 719 735 253 50 96 247 554 391 171 0 0 0 0 0 0
0 0 0 0 0 0 7 41 0 56 65 8 34 104 144 104 90 42 6 75 129 185 267 302 499 496 468 494 419 335 372 450 470 463 506 549 398 232 99 111 145 216 157 63 0 0 0 0 0
0 0 0 0 0 0 99 55 14 127 105 28 59 132 209 201 102 37 5 62 132 211 262 327 340 355 226 203 156 153 229 280 305 303 300 288 285 203 71 14 10 9 0 0 0 0 0 0 0
0 0 0 0 0 0 0 53 49 155 195 124 56 40 248 315 226 149 27 32 106 160 194 190 203 149 146 137 117 86 63 62 80 128 112 61 101 190 69 0 0 0 0 0 0 0 0 0 0
0 0 0 0 0 0 67 28 222 179 179 182 67 111 126 410 337 300 213 66 20 51 49 54 43 54 72 78 100 98 106 40 13 41 30 30 14 25 10 0 0 0 0 0 0 0 0 0 0
0 0 0 0 0 0 7 77 148 165 118 92 88 167 548 451 463 412 277 75 20 14 26 9 5 1 3 47 71 1 0 0 0 15 35 51 52 27 18 0 0 0 0 0 0 0 0 0 0
0 0 0 0 0 0 73 85 72 97 35 47 110 507 793 728 627 367 251 144 99 73 20 10 7 4 1 17 2 2 11 34 61 123 123 21 42 100 47 49 1 0 0 0 0 0 2 6 4
0 0 0 0 0 0 26 77 77 44 53 53 232 704 828 775 687 599 519 497 355 266 149 115 87 63 15 37 10 0 41 92 119 63 98 186 152 22 0 17 0 4 94 32 102 116 134 122 156
0 0 0 0 0 0 1 72 66 89 695 247 319 735 869 895 875 803 707 624 590 559 448 372 342 355 391 258 219 189 135 234 105 8 56 122 150 112 110 73 20 66 70 92 23 56 130 67 118
0 0 0 0 0 0 118 65 162 133 649 639 516 696 944 954 874 871 832 757 671 645 681 650 591 735 627 599 509 366 292 274 67 11 0 110 93 25 91 128 56 34 73 8 15 3 2 8 27
0 0 0 0 0 0 380 304 238 107 425 730 684 567 786 1010 978 975 951 958 796 649 602 795 665 698 525 468 473 313 211 187 111 36 10 3 30 2 1 1 0 0 0 0 0 0 0 0 0
0 0 0 0 0 0 92 204 347 279 504 714 746 599 646 703 274 339 357 435 529 710 601 543 487 553 471 370 327 260 198 122 97 23 0 0 0 0 0 0 0 0 0 0 0 0 0 0 0
0 0 0 0 0 0 0 266 645 667 783 700 519 314 314 150 162 96 209 369 614 835 682 523 403 389 439 450 308 228 151 98 62 10 12 4 4 12 15 8 0 1 5 2 0 0 0 0 0
0 0 0 0 0 0 0 190 473 700 532 409 363 279 155 92 250 251 252 382 619 917 906 543 363 352 313 352 343 275 233 107 5 18 47 35 20 19 83 66 10 5 0 0 0 0 0 0 0
0 0 0 0 0 0 0 3 431 433 415 290 305 245 140 269 385 230 266 428 677 887 734 518 357 253 187 186 290 303 229 102 5 10 28 83 59 35 53 32 4 0 0 0 0 0 0 0 0
0 0 0 0 0 0 0 0 274 440 281 316 330 223 187 418 446 370 401 517 548 556 499 402 366 328 342 313 251 203 176 98 72 14 62 102 41 20 11 1 0 0 0 0 0 0 0 0 0
0 0 0 0 0 0 0 1 83 359 460 366 243 199 197 411 580 628 603 542 576 617 509 445 415 414 407 420 409 300 190 54 26 29 49 49 7 14 0 0 0 0 0 0 0 0 0 0 0
0 0 0 0 0 0 0 0 52 152 386 541 384 221 114 315 477 535 596 606 587 600 463 426 430 364 331 441 450 263 139 38 7 3 15 0 0 1 0 0 0 0 0 0 0 0 0 0 0
0 0 0 0 0 0 0 0 0 185 277 282 360 313 182 262 442 516 578 629 632 585 368 299 385 232 449 572 350 86 80 4 0 0 0 0 0 0 0 0 0 0 0 0 0 0 0 0 0
0 0 0 0 0 0 0 0 0 274 160 325 526 455 491 396 301 389 461 376 377 295 281 390 451 502 288 61 69 24 1 0 0 0 0 0 0 0 0 0 0 0 0 0 0 0 0 0 0
0 0 0 0 0 0 0 0 0 0 113 316 590 630 641 575 470 475 468 402 371 276 230 378 529 310 158 73 10 0 0 0 0 0 0 0 0 0 0 0 0 0 0 0 0 0 0 0 0
0 0 0 0 0 0 0 0 0 0 0 39 171 360 702 653 583 474 488 513 463 302 218 144 515 372 60 6 0 0 0 0 0 0 0 0 0 0 0 0 0 0 0 0 0 0 0 0 0
0 0 0 0 0 0 0 0 0 0 0 0 1 180 364 676 633 537 643 603 537 436 315 91 344 312 43 0 0 0 0 0 0 0 0 0 0 0 0 0 0 0 0 0 0 0 0 0 0
0 0 0 0 0 0 0 0 0 0 0 0 0 0 205 480 738 650 642 569 540 503 378 125 56 193 2 0 0 0 0 0 0 0 0 0 0 0 0 0 0 0 0 0 0 0 0 0 0
0 0 0 0 0 0 0 0 0 0 0 0 0 0 139 272 393 650 678 569 446 376 217 69 0 27 0 0 0 0 0 0 0 0 0 0 0 0 0 0 0 0 0 0 0 0 0 0 0
0 0 0 0 0 0 0 0 0 0 0 0 0 0 69 342 275 315 396 381 344 225 159 51 5 0 0 0 0 0 0 0 0 0 0 0 0 0 0 0 0 0 0 0 0 0 0 0 0
CIN
-0 -0 -0 -0 -119 -69 -180 -169 -0 -0 -31 -22 -3 -0 -70 -85 -0 -0 -133 -295 -109 -54 -15 -26 -39 -18 -0 -0 -0 -0 -0 -0 -0 -0 -0 -0 -0 -1 -1 -2 -1 -0 -0 -5 -0 -0 -0 -4 -31
-0 -0 -0 -0 -117 -55 -36 -116 -4 -0 -0 -46 -99 -247 -343 -394 -449 -431 -0 -221 -140 -65 -42 -34 -31 -4 -0 -0 -0 -0 -0 -0 -0 -0 -0 -0 -0 -1 -0 -1 -0 -0 -5 -36 -31 -34 -27 -0 -0
-0 -0 -0 -0 -0 -109 -58 -20 -0 -0 -146 -100 -5 -275 -372 -451 -364 -0 -216 -286 -129 -73 -40 -17 -31 -0 -0 -0 -0 -0 -0 -0 -0 -0 -0 -14 -39 -22 -4 -1 -2 -11 -48 -60 -68 -3 -0 -0 -0
-0 -0 -0 -0 -0 -30 -71 -46 -4 -69 -53 -119 -0 -298 -319 -313 -368 -601 -397 -268 -132 -81 -46 -39 -17 -7 -0 -0 -0 -0 -1 -0 -0 -0 -0 -1 -108 -95 -59 -8 -6 -16 -63 -64 -0 -0 -0 -0 -0
-0 -0 -0 -0 -0 -0 -178 -33 -47 -0 -143 -20 -133 -336 -352 -297 -433 -400 -402 -237 -215 -112 -82 -62 -40 -22 -2 -0 -0 -0 -2 -7 -4 -3 -0 -0 -29 -124 -98 -60 -6 -19 -64 -0 -0 -0 -0 -0 -0
-0 -0 -0 -0 -0 -0 -181 -54 -0 -158 -252 -197 -278 -354 -350 -349 -420 -421 -548 -294 -230 -183 -123 -89 -36 -37 -28 -15 -25 -39 -33 -26 -26 -32 -22 -15 -36 -61 -109 -112 -99 -66 -90 -107 -0 -0 -0 -0 -0
-0 -0 -0 -0 -0 -0 -126 -98 -99 -230 -244 -212 -194 -340 -365 -348 -338 -401 -397 -387 -249 -182 -150 -103 -82 -73 -96 -89 -91 -91 -67 -52 -46 -50 -61 -74 -66 -83 -128 -34 -37 -38 -0 -0 -0 -0 -0 -0 -0
-0 -0 -0 -0 -0 -0 -0 -85 -138 -157 -225 -272 -205 -158 -366 -382 -299 -274 -320 -465 -324 -228 -201 -195 -170 -187 -174 -157 -169 -176 -174 -170 -157 -117 -122 -152 -128 -83 -129 -0 -0 -0 -0 -0 -0 -0 -0 -0 -0
-0 -0 -0 -0 -0 -0 -144 -176 -403 -411 -226 -341 -277 -200 -201 -303 -287 -264 -261 -288 -490 -331 -306 -297 -327 -323 -298 -268 -217 -204 -186 -244 -267 -193 -198 -219 -226 -192 -138 -0 -0 -0 -0 -0 -0 -0 -0 -0 -0
-0 -0 -0 -0 -0 -0 -55 -183 -282 -390 -132 -379 -223 -226 -204 -174 -251 -249 -302 -333 -517 -491 -367 -418 -444 -85 -389 -341 -298 -154 -20 -0 -0 -174 -135 -115 -130 -156 -202 -0 -0 -0 -0 -0 -0 -0 -0 -0 -0
-0 -0 -0 -0 -0 -0 -161 -73 -258 -338 -16 -303 -295 -206 -158 -140 -225 -244 -377 -450 -448 -466 -477 -455 -467 -413 -95 -415 -60 -155 -250 -164 -128 -69 -59 -170 -128 -101 -150 -185 -66 -0 -0 -0 -0 -0 -11 -47 -9
-0 -0 -0 -0 -0 -0 -177 -69 -24 -38 -292 -194 -153 -74 -12 -190 -281 -270 -255 -280 -292 -306 -350 -334 -325 -361 -431 -260 -22 -19 -224 -183 -115 -115 -68 -44 -42 -120 -0 -130 -0 -7 -73 -36 -71 -40 -17 -21 -25
-0 -0 -0 -0 -0 -0 -34 -187 -30 -79 -150 -186 -261 -157 -34 -95 -232 -222 -222 -218 -235 -197 -208 -180 -159 -161 -120 -153 -122 -146 -135 -77 -134 -152 -111 -84 -79 -94 -68 -75 -152 -66 -51 -46 -19 -31 -14 -18 -20
-0 -0 -0 -0 -0 -0 -195 -106 -27 -40 -167 -134 -137 -135 -64 -118 -215 -204 -209 -222 -204 -201 -139 -117 -105 -69 -58 -70 -80 -60 -52 -53 -148 -244 -0 -109 -93 -124 -90 -85 -77 -49 -22 -14 -17 -2 -2 -3 -9
-0 -0 -0 -0 -0 -0 -93 -78 -77 -228 -280 -186 -159 -130 -65 -89 -125 -186 -191 -194 -174 -197 -172 -109 -115 -71 -108 -130 -113 -127 -132 -130 -143 -195 -235 -58 -158 -55 -15 -14 -0 -0 -0 -0 -0 -0 -0 -0 -0
-0 -0 -0 -0 -0 -0 -26 -75 -22 -33 -245 -213 -113 -116 -98 -79 -277 -261 -327 -324 -254 -153 -159 -173 -191 -128 -127 -157 -157 -144 -135 -146 -144 -225 -0 -0 -0 -0 -0 -0 -0 -0 -0 -0 -3 -0 -0 -0 -0
-0 -0 -0 -0 -0 -0 -0 -96 -54 -62 -144 -147 -152 -221 -246 -225 -267 -376 -422 -324 -218 -127 -120 -153 -201 -186 -131 -91 -141 -156 -146 -161 -168 -210 -215 -233 -208 -166 -131 -115 -0 -41 -32 -12 -0 -0 -0 -0 -0
-0 -0 -0 -0 -0 -0 -0 -61 -112 -91 -117 -73 -26 -27 -47 -235 -411 -494 -487 -311 -265 -122 -74 -137 -192 -167 -181 -130 -109 -124 -128 -170 -266 -207 -139 -144 -186 -198 -94 -92 -152 -57 -0 -0 -0 -0 -0 -0 -0
-0 -0 -0 -0 -0 -0 -0 -87 -84 -87 -71 -36 -22 -43 -79 -304 -313 -387 -355 -270 -210 -127 -115 -140 -186 -212 -152 -234 -137 -102 -137 -207 -300 -260 -195 -127 -137 -186 -150 -154 -179 -0 -0 -0 -0 -0 -0 -0 -0
-0 -0 -0 -0 -0 -0 -0 -0 -87 -50 -78 -71 -47 -50 -165 -159 -178 -213 -223 -174 -177 -188 -177 -166 -158 -114 -80 -94 -101 -122 -140 -180 -197 -315 -183 -152 -215 -240 -236 -44 -0 -0 -0 -0 -0 -0 -0 -0 -0
-0 -0 -0 -0 -0 -0 -0 -1 -186 -91 -32 -42 -48 -34 -132 -169 -152 -117 -93 -83 -75 -84 -91 -123 -133 -93 -87 -78 -75 -106 -144 -234 -287 -238 -234 -204 -128 -260 -0 -0 -0 -0 -0 -0 -0 -0 -0 -0 -0
-0 -0 -0 -0 -0 -0 -0 -0 -162 -152 -84 -55 -52 -53 -68 -137 -122 -100 -77 -60 -73 -86 -86 -100 -90 -126 -140 -99 -72 -121 -185 -269 -202 -54 -289 -0 -0 -53 -0 -0 -0 -0 -0 -0 -0 -0 -0 -0 -0
-0 -0 -0 -0 -0 -0 -0 -0 -0 -119 -82 -78 -69 -61 -65 -109 -102 -94 -109 -83 -70 -82 -103 -76 -84 -145 -110 -61 -103 -227 -234 -231 -0 -0 -0 -0 -0 -0 -0 -0 -0 -0 -0 -0 -0 -0 -0 -0 -0
-0 -0 -0 -0 -0 -0 -0 -0 -0 -74 -73 -93 -88 -77 -49 -39 -34 -112 -67 -89 -80 -110 -131 -77 -75 -112 -160 -290 -261 -305 -271 -0 -0 -0 -0 -0 -0 -0 -0 -0 -0 -0 -0 -0 -0 -0 -0 -0 -0
-0 -0 -0 -0 -0 -0 -0 -0 -0 -0 -62 -56 -60 -64 -59 -62 -40 -72 -90 -104 -102 -116 -165 -105 -73 -112 -218 -260 -274 -0 -0 -0 -0 -0 -0 -0 -0 -0 -0 -0 -0 -0 -0 -0 -0 -0 -0 -0 -0
-0 -0 -0 -0 -0 -0 -0 -0 -0 -0 -0 -105 -51 -48 -100 -77 -98 -79 -88 -86 -78 -89 -92 -159 -62 -64 -237 -333 -0 -0 -0 -0 -0 -0 -0 -0 -0 -0 -0 -0 -0 -0 -0 -0 -0 -0 -0 -0 -0
-0 -0 -0 -0 -0 -0 -0 -0 -0 -0 -0 -0 -7 -77 -138 -67 -87 -96 -90 -85 -63 -73 -58 -198 -83 -77 -126 -0 -0 -0 -0 -0 -0 -0 -0 -0 -0 -0 -0 -0 -0 -0 -0 -0 -0 -0 -0 -0 -0
-0 -0 -0 -0 -0 -0 -0 -0 -0 -0 -0 -0 -0 -0 -117 -99 -71 -92 -98 -103 -105 -96 -101 -132 -171 -80 -20 -0 -0 -0 -0 -0 -0 -0 -0 -0 -0 -0 -0 -0 -0 -0 -0 -0 -0 -0 -0 -0 -0
-0 -0 -0 -0 -0 -0 -0 -0 -0 -0 -0 -0 -0 -0 -140 -111 -85 -85 -105 -104 -100 -109 -117 -172 -0 -143 -0 -0 -0 -0 -0 -0 -0 -0 -0 -0 -0 -0 -0 -0 -0 -0 -0 -0 -0 -0 -0 -0 -0
-0 -0 -0 -0 -0 -0 -0 -0 -0 -0 -0 -0 -0 -0 -56 -41 -62 -39 -38 -73 -85 -95 -126 -156 -209 -0 -0 -0 -0 -0 -0 -0 -0 -0 -0 -0 -0 -0 -0 -0 -0 -0 -0 -0 -0 -0 -0 -0 -0
Wind_Speed
nan nan nan nan nan 13 nan nan nan nan nan nan nan nan nan nan nan nan nan nan 13 12 15 13 9 10 10 10 9 8 7 6 4 5 7 5 7 10 7 11 6 11 10 5 9 10 10 11 nan
nan nan nan nan nan 16 nan nan nan nan nan nan nan nan nan nan nan nan nan nan 11 11 10 10 9 9 10 9 7 5 6 7 6 6 6 8 9 7 11 9 4 7 10 11 15 14 nan nan nan
nan nan nan nan nan nan nan nan nan nan nan nan nan nan nan nan nan nan nan nan 10 8 8 6 4 7 7 8 7 4 4 5 5 4 4 6 5 7 8 13 8 7 7 6 nan nan nan nan nan
nan nan nan nan nan nan nan nan nan nan nan nan nan nan nan nan nan nan nan nan 8 6 6 5 5 6 7 6 5 6 5 7 8 6 4 6 nan nan 7 6 5 5 3 nan nan nan nan nan nan
nan nan nan nan nan nan nan nan nan nan nan nan nan nan 11 nan nan nan nan nan 13 9 5 6 8 8 7 7 7 6 6 6 8 7 7 6 4 nan nan 8 6 3 2 nan nan nan nan nan nan
nan nan nan nan nan nan nan nan nan nan nan nan nan 15 14 28 nan nan nan nan 8 12 6 6 10 11 9 7 7 6 6 6 7 7 8 7 6 6 nan 5 5 3 2 nan nan nan nan nan nan
nan nan nan nan nan nan nan nan nan 12 23 nan nan 11 16 24 25 nan nan nan 6 7 7 6 7 9 10 9 8 8 9 9 9 10 9 8 7 8 nan nan nan nan nan nan nan nan nan nan nan
nan nan nan nan nan nan nan nan nan 30 24 25 nan nan 7 18 21 20 nan nan 8 4 6 7 6 6 6 7 10 nan nan nan nan 12 12 nan 13 15 nan nan nan nan nan nan nan nan nan nan nan
nan nan nan nan nan nan nan nan 22 22 24 26 nan 22 8 15 21 17 13 nan nan nan nan nan nan nan nan nan 10 nan 12 nan nan nan nan nan nan nan nan nan nan nan nan nan nan nan nan nan nan
nan nan nan nan nan nan nan nan 31 30 22 nan nan 21 11 12 21 20 18 nan nan nan nan nan nan nan nan nan nan nan nan nan nan nan nan nan nan nan nan nan nan nan nan nan nan nan nan nan nan
nan nan nan nan nan nan nan nan nan nan nan nan 11 8 14 15 22 23 19 21 nan nan nan nan nan nan nan nan nan nan nan nan nan 6 6 nan nan 9 nan nan nan nan nan nan nan nan nan nan nan
nan nan nan nan nan nan nan nan nan nan nan nan 27 25 6 17 21 21 20 19 18 19 18 15 nan nan nan nan nan nan nan nan 9 nan nan 8 5 nan nan nan nan nan nan nan 10 10 9 10 9
nan nan nan nan nan nan nan nan nan nan 44 32 28 18 10 11 22 22 20 19 20 18 18 16 14 10 9 10 10 12 11 12 13 nan nan 6 8 9 14 nan nan nan nan nan nan nan 14 nan 18
nan nan nan nan nan nan 49 nan 53 37 46 40 38 22 10 16 25 25 22 22 17 20 19 19 17 13 14 12 14 18 18 16 nan nan nan 10 nan nan nan 16 nan nan nan nan nan nan nan nan nan
nan nan nan nan nan nan 58 56 45 42 44 44 17 19 11 18 23 25 23 22 18 18 24 21 20 21 23 20 18 17 18 16 16 nan nan nan nan nan nan nan nan nan nan nan nan nan nan nan nan
nan nan nan nan nan nan nan 55 48 45 44 39 43 26 3 11 20 23 23 25 20 23 28 27 26 28 28 24 21 20 19 19 nan nan nan nan nan nan nan nan nan nan nan nan nan nan nan nan nan
nan nan nan nan nan nan nan 59 53 41 37 36 29 26 22 18 28 nan 37 36 31 31 35 35 30 33 34 32 27 23 24 nan nan nan nan nan nan nan nan nan nan nan nan nan nan nan nan nan nan
nan nan nan nan nan nan nan 52 57 50 46 35 30 28 34 nan 34 41 48 45 41 39 39 39 36 35 35 35 33 30 28 25 nan nan nan nan nan nan nan nan nan nan nan nan nan nan nan nan nan
nan nan nan nan nan nan nan nan 50 50 44 42 33 35 41 40 41 46 49 50 48 40 40 37 38 35 38 36 34 33 32 31 nan nan nan nan nan nan nan nan nan nan nan nan nan nan nan nan nan
nan nan nan nan nan nan nan nan 41 43 46 37 29 36 43 47 45 45 45 44 42 40 40 39 37 36 37 39 38 37 35 nan nan nan nan 31 nan nan nan nan nan nan nan nan nan nan nan nan nan
nan nan nan nan nan nan nan nan nan 42 46 32 38 43 44 50 47 45 43 41 43 40 42 42 39 38 38 40 40 42 43 nan nan nan nan nan nan nan nan nan nan nan nan nan nan nan nan nan nan
nan nan nan nan nan nan nan nan nan 44 39 36 33 36 38 47 52 49 45 42 39 38 43 45 43 42 39 41 43 44 40 nan nan nan nan nan nan nan nan nan nan nan nan nan nan nan nan nan nan
nan nan nan nan nan nan nan nan nan 51 47 39 37 39 40 37 44 41 39 40 36 43 46 46 45 43 43 44 45 nan nan nan nan nan nan nan nan nan nan nan nan nan nan nan nan nan nan nan nan
nan nan nan nan nan nan nan nan nan 50 34 38 39 39 36 37 35 27 33 41 45 44 45 47 47 45 46 nan nan nan nan nan nan nan nan nan nan nan nan nan nan nan nan nan nan nan nan nan nan
nan nan nan nan nan nan nan nan nan nan 39 40 39 36 39 35 34 31 34 38 42 43 42 43 46 43 44 nan nan nan nan nan nan nan nan nan nan nan nan nan nan nan nan nan nan nan nan nan nan
nan nan nan nan nan nan nan nan nan nan nan nan 41 38 37 33 32 29 31 31 36 40 46 45 43 44 nan nan nan nan nan nan nan nan nan nan nan nan nan nan nan nan nan nan nan nan nan nan nan
nan nan nan nan nan nan nan nan nan nan nan nan nan 48 35 33 32 30 26 32 39 41 44 nan 45 44 nan nan nan nan nan nan nan nan nan nan nan nan nan nan nan nan nan nan nan nan nan nan nan
nan nan nan nan nan nan nan nan nan nan nan nan nan nan 41 31 28 21 22 19 23 31 37 45 nan 53 nan nan nan nan nan nan nan nan nan nan nan nan nan nan nan nan nan nan nan nan nan nan nan
nan nan nan nan nan nan nan nan nan nan nan nan nan nan 44 42 33 25 25 28 34 41 40 nan nan nan nan nan nan nan nan nan nan nan nan nan nan nan nan nan nan nan nan nan nan nan nan nan nan
nan nan nan nan nan nan nan nan nan nan nan nan nan nan nan 43 41 41 48 41 31 39 42 nan nan nan nan nan nan nan nan nan nan nan nan nan nan nan nan nan nan nan nan nan nan nan nan nan nan
Wind_Direction
nan nan nan nan nan 235 nan nan nan nan nan nan nan nan nan nan nan nan nan nan 358 47 61 63 9 0 1 356 353 2 9 7 6 6 42 73 171 183 161 176 179 167 178 192 209 210 201 202 nan
nan nan nan nan nan 236 nan nan nan nan nan nan nan nan nan nan nan nan nan nan 11 34 60 63 2 357 5 7 4 11 7 10 32 33 38 64 108 145 202 175 149 173 207 208 206 211 nan nan nan
nan nan nan nan nan nan nan nan nan nan nan nan nan nan nan nan nan nan nan nan 4 27 44 40 360 338 359 15 7 25 73 59 77 67 62 87 84 106 121 133 147 140 151 166 nan nan nan nan nan
nan nan nan nan nan nan nan nan nan nan nan nan nan nan nan nan nan nan nan nan 333 357 39 17 351 350 350 5 5 32 62 82 79 69 92 77 nan nan 144 140 133 131 126 nan nan nan nan nan nan
nan nan nan nan nan nan nan nan nan nan nan nan nan nan 248 nan nan nan nan nan 327 338 20 1 338 334 338 348 10 17 42 58 78 100 102 91 96 nan nan 168 179 150 118 nan nan nan nan nan nan
nan nan nan nan nan nan nan nan nan nan nan nan nan 261 253 294 nan nan nan nan 346 340 7 359 333 327 331 348 8 19 25 40 55 68 84 94 111 136 nan 136 132 115 94 nan nan nan nan nan nan
nan nan nan nan nan nan nan nan nan 242 228 nan nan 230 274 302 292 nan nan nan 350 4 3 20 9 347 340 352 19 27 30 35 40 45 52 62 69 68 nan nan nan nan nan nan nan nan nan nan nan
nan nan nan nan nan nan nan nan nan 269 209 229 nan nan 336 317 295 288 nan nan 316 348 354 1 12 17 25 33 17 nan nan nan nan 44 44 nan 46 48 nan nan nan nan nan nan nan nan nan nan nan
nan nan nan nan nan nan nan nan 227 242 268 214 nan 190 183 300 298 291 289 nan nan nan nan nan nan nan nan nan 30 nan 35 nan nan nan nan nan nan nan nan nan nan nan nan nan nan nan nan nan nan
nan nan nan nan nan nan nan nan 241 239 256 nan nan 218 285 310 302 306 315 nan nan nan nan nan nan nan nan nan nan nan nan nan nan nan nan nan nan nan nan nan nan nan nan nan nan nan nan nan nan
nan nan nan nan nan nan nan nan nan nan nan nan 224 263 314 317 303 306 311 325 nan nan nan nan nan nan nan nan nan nan nan nan nan 4 31 nan nan 43 nan nan nan nan nan nan nan nan nan nan nan
nan nan nan nan nan nan nan nan nan nan nan nan 232 198 172 313 300 299 301 304 313 320 317 315 nan nan nan nan nan nan nan nan 321 nan nan 331 359 nan nan nan nan nan nan nan 317 310 309 316 310
nan nan nan nan nan nan nan nan nan nan 237 284 296 343 360 298 287 290 292 299 308 309 314 308 298 297 295 305 301 292 292 300 309 nan nan 304 309 313 318 nan nan nan nan nan nan nan 284 nan 272
nan nan nan nan nan nan 242 nan 242 242 256 269 257 274 292 280 282 281 290 294 302 305 305 294 295 277 272 265 282 285 289 293 nan nan nan 281 nan nan nan 312 nan nan nan nan nan nan nan nan nan
nan nan nan nan nan nan 241 237 238 262 254 269 220 209 243 266 273 282 284 288 289 292 287 284 277 267 266 261 264 270 278 278 272 nan nan nan nan nan nan nan nan nan nan nan nan nan nan nan nan
nan nan nan nan nan nan nan 237 252 264 262 266 275 279 197 280 277 272 274 273 276 275 276 274 268 264 261 259 260 264 265 269 nan nan nan nan nan nan nan nan nan nan nan nan nan nan nan nan nan
nan nan nan nan nan nan nan 239 250 268 273 281 278 287 300 266 256 nan 267 264 266 264 269 269 270 269 267 263 265 266 271 nan nan nan nan nan nan nan nan nan nan nan nan nan nan nan nan nan nan
nan nan nan nan nan nan nan 235 260 275 270 291 297 293 278 nan 260 259 263 260 256 256 260 265 264 267 268 266 267 267 271 273 nan nan nan nan nan nan nan nan nan nan nan nan nan nan nan nan nan
nan nan nan nan nan nan nan nan 261 268 283 274 282 274 272 267 255 253 255 257 258 254 261 265 270 269 269 267 269 269 274 275 nan nan nan nan nan nan nan nan nan nan nan nan nan nan nan nan nan
nan nan nan nan nan nan nan nan 246 260 273 283 286 267 263 258 259 258 259 256 258 262 257 261 268 269 265 266 266 269 274 nan nan nan nan 281 nan nan nan nan nan nan nan nan nan nan nan nan nan
nan nan nan nan nan nan nan nan nan 241 240 258 266 262 267 272 268 261 261 261 260 260 262 262 263 263 263 265 267 268 268 nan nan nan nan nan nan nan nan nan nan nan nan nan nan nan nan nan nan
nan nan nan nan nan nan nan nan nan 244 251 250 256 255 260 265 261 264 264 263 264 261 261 263 266 268 267 273 273 281 275 nan nan nan nan nan nan nan nan nan nan nan nan nan nan nan nan nan nan
nan nan nan nan nan nan nan nan nan 247 247 254 251 246 248 262 267 260 265 266 265 263 264 264 267 271 271 271 276 nan nan nan nan nan nan nan nan nan nan nan nan nan nan nan nan nan nan nan nan
nan nan nan nan nan nan nan nan nan 236 254 249 249 265 268 266 268 269 259 258 256 255 259 263 268 268 268 nan nan nan nan nan nan nan nan nan nan nan nan nan nan nan nan nan nan nan nan nan nan
nan nan nan nan nan nan nan nan nan nan 243 256 260 261 267 282 262 275 266 255 259 263 265 266 271 271 270 nan nan nan nan nan nan nan nan nan nan nan nan nan nan nan nan nan nan nan nan nan nan
nan nan nan nan nan nan nan nan nan nan nan nan 251 262 273 288 269 261 265 260 263 263 263 264 267 268 nan nan nan nan nan nan nan nan nan nan nan nan nan nan nan nan nan nan nan nan nan nan nan
nan nan nan nan nan nan nan nan nan nan nan nan nan 257 255 259 267 277 278 278 268 270 273 nan 271 267 nan nan nan nan nan nan nan nan nan nan nan nan nan nan nan nan nan nan nan nan nan nan nan
nan nan nan nan nan nan nan nan nan nan nan nan nan nan 265 278 273 275 275 291 281 279 280 272 nan 270 nan nan nan nan nan nan nan nan nan nan nan nan nan nan nan nan nan nan nan nan nan nan nan
nan nan nan nan nan nan nan nan nan nan nan nan nan nan 257 260 260 259 255 270 271 278 279 nan nan nan nan nan nan nan nan nan nan nan nan nan nan nan nan nan nan nan nan nan nan nan nan nan nan
nan nan nan nan nan nan nan nan nan nan nan nan nan nan nan 253 257 257 260 257 264 272 273 nan nan nan nan nan nan nan nan nan nan nan nan nan nan nan nan nan nan nan nan nan nan nan nan nan nan